#timestamp,LO_Frequency,Hit,StdDev 
1622847615.2,286047001.0,N
1622847635.0,286047000.7,N
1622847635.9,286047000.7,N
1622847655.8,286047002.7,N
1622847675.6,286046999.7,N
1622847695.4,286047003.7,N
1622847715.3,286047004.0,N
1622847735.1,286047003.2,N
1622847755.8,286047002.2,N
1622847775.7,286047001.6,N
1622847795.5,286047004.0,N
1622847815.4,286047001.4,N
1622847835.2,286047000.8,N
1622847855.0,286047000.9,N
1622847855.9,286047000.9,N
1622847875.8,286047002.7,N
1622847895.6,286047000.6,N
1622847915.4,286047000.3,N
1622847935.3,286047002.4,N
1622847955.1,286047001.4,N
1622847975.9,286047004.3,N
1622847995.7,286047001.6,N
1622848015.5,286047001.7,N
1622848035.4,286047003.6,N
1622848055.2,286047003.9,N
1622848075.0,286047002.6,N
1622848075.9,286047002.6,N
1622848095.8,286047002.2,N
1622848115.6,286047001.6,N
1622848135.5,286047003.2,N
1622848155.3,286047003.2,N
1622848175.1,286047005.9,Y
1622848195.9,286046999.8,P
1622848215.7,286046998.5,N
1622848235.5,286047000.4,N
1622848255.4,286047002.2,N
1622848275.2,286047001.7,N
1622848295.1,286046999.7,N
1622848296.0,286046999.7,N
1622848315.8,286047001.4,N
1622848335.6,286047003.2,N
1622848355.5,286047005.4,Y
1622848375.3,286047003.7,P
1622848395.1,286047002.2,N
1622848415.9,286046999.7,N
1622848435.7,286046999.9,N
1622848455.6,286047002.3,N
1622848475.4,286047001.6,N
1622848495.2,286047002.6,N
1622848515.1,286047001.1,N
1622848516.0,286047001.1,N
1622848535.8,286046998.1,N
1622848555.6,286046998.8,N
1622848575.5,286046998.1,N
1622848595.3,286047002.7,N
1622848615.2,286047003.9,N
1622848635.9,286047003.6,N
1622848655.7,286047003.7,N
1622848675.6,286047000.2,N
1622848695.4,286047002.1,N
1622848715.2,286047004.1,N
1622848735.1,286047003.4,N
1622848736.0,286047003.4,N
1622848755.8,286047002.5,N
1622848775.7,286047002.4,N
1622848795.5,286047002.5,N
1622848815.3,286047002.0,N
1622848835.2,286047000.4,N
1622848855.0,286047001.6,N
1622848855.9,286047001.6,N
1622848875.7,286047002.0,N
1622848895.6,286047001.9,N
1622848915.4,286047003.9,N
1622848935.3,286047003.1,N
1622848955.1,286047002.0,N
1622848956.0,286047002.0,N
1622848975.8,286047002.5,N
1622848995.7,286046999.2,N
1622849015.5,286046998.6,N
1622849035.3,286047002.4,N
1622849055.2,286047001.8,N
1622849075.0,286047004.3,N
1622849075.9,286047004.3,N
1622849095.8,286047001.6,N
1622849115.6,286047004.1,N
1622849135.4,286047005.3,Y
1622849155.3,286047000.8,P
1622849175.1,286047001.0,N
1622849195.9,286047000.4,N
1622849215.7,286047002.0,N
1622849235.5,286046998.5,N
1622849255.4,286047000.3,N
1622849275.2,286047002.8,N
1622849295.0,286047000.5,N
1622849295.9,286047000.5,N
1622849315.8,286047000.9,N
1622849335.6,286047001.1,N
1622849355.5,286046998.9,N
1622849375.3,286046998.4,N
1622849395.1,286047001.9,N
1622849415.9,286047002.0,N
1622849435.7,286047002.8,N
1622849455.6,286047002.2,N
1622849475.4,286047001.9,N
1622849495.2,286046998.6,N
1622849515.1,286046996.7,N
1622849516.0,286046996.7,N
1622849535.8,286046996.9,N
1622849555.6,286046997.5,N
1622849575.5,286046997.9,N
1622849595.3,286047000.0,N
1622849615.2,286047000.5,N
1622849635.0,286047001.1,N
1622849635.9,286047001.1,N
1622849655.7,286047000.1,N
1622849675.6,286047002.5,N
1622849695.4,286047002.6,N
1622849715.3,286046999.8,N
1622849735.1,286046998.7,N
1622849736.0,286046998.7,N
1622849755.8,286047000.9,N
1622849775.7,286046999.8,N
1622849795.5,286047004.4,N
1622849815.3,286047001.7,N
1622849835.2,286046999.8,N
1622849855.0,286047002.3,N
1622849855.9,286047002.3,N
1622849875.8,286047002.2,N
1622849895.6,286047001.9,N
1622849915.4,286047002.0,N
1622849935.3,286047001.5,N
1622849955.1,286047002.8,N
1622849975.8,286046998.5,N
1622849995.7,286047000.6,N
1622850015.5,286047001.1,N
1622850035.4,286047001.6,N
1622850055.2,286047002.6,N
1622850075.0,286047000.6,N
1622850075.9,286047000.6,N
1622850095.8,286047000.8,N
1622850115.6,286047002.1,N
1622850135.4,286047004.3,Y
1622850155.3,286047000.1,P
1622850175.1,286046999.9,N
1622850195.9,286047000.8,N
1622850215.7,286046996.8,Y
1622850235.5,286046999.3,P
1622850255.4,286046999.6,N
1622850275.2,286046996.7,P
1622850295.1,286046995.7,Y
1622850296.0,286046995.7,P
1622850315.8,286046997.7,N
1622850335.6,286046997.7,N
1622850355.5,286046995.8,Y
1622850375.3,286046997.7,P
1622850395.1,286046997.7,P
1622850415.9,286046996.9,P
1622850435.7,286046997.1,Y
1622850455.6,286047000.5,P
1622850475.4,286047001.0,N
1622850495.2,286047002.8,N
1622850515.1,286047002.4,N
1622850516.0,286047002.4,N
1622850535.8,286046999.9,N
1622850555.6,286046999.9,N
1622850575.5,286047000.4,N
1622850595.3,286047000.3,N
1622850615.2,286047001.0,N
1622850635.9,286047002.7,N
1622850655.7,286047000.5,N
1622850675.6,286047000.2,N
1622850695.4,286047001.2,N
1622850715.2,286047000.6,N
1622850735.1,286047001.2,N
1622850736.0,286047001.2,N
1622850755.8,286047000.4,N
1622850775.7,286047000.5,N
1622850795.5,286047000.4,N
1622850815.3,286047001.1,N
1622850835.2,286047000.8,N
1622850855.0,286047000.3,N
1622850855.9,286047000.3,N
1622850875.7,286047000.6,N
1622850895.6,286046998.4,N
1622850915.4,286046998.1,N
1622850935.3,286046998.1,N
1622850955.1,286046998.6,N
1622850956.0,286046998.6,N
1622850975.8,286046998.3,N
1622850995.7,286046999.4,N
1622851015.5,286046998.5,N
1622851035.4,286046999.3,N
1622851055.2,286046999.2,N
1622851075.0,286046996.9,N
1622851075.9,286046996.9,N
1622851095.8,286046997.4,N
1622851115.6,286046998.0,N
1622851135.4,286046997.5,N
1622851155.3,286046995.1,Y
1622851175.1,286046996.2,P
1622851195.9,286046995.6,N
